[[{"header":{"parameterUnit":"m.s-1","parameterCategory":2,"la1":30.2991,"la2":30.254,"lo1":-89.0895,"lo2":-89.0444,"dy":0.0017,"dx":0.0017,"nx":28,"ny":28,"refTime":"2025-08-16T21:00:00:Z","depth":"0","parameterNumber":2,"parameterNumberName":"U-component_of_CURRENTS"},"data":[0,0,0,0,0,0,0,0,0,0,0,0,0,0,0,0,0,0,0,0,0,0,0,0,0,0,0,0,0,0,0,0,0,0,0,0,0,0,0,0,0,0,0,0,0,0,0,0,0,0,0,0,0,0,0,0,0,0,0.3858,0.3859,0,0.3887,0.3887,0.3886,0.3861,0.386,0.386,0.386,0.3896,0.3897,0.3899,0,0,0,0,0,0,0,0,0,0,0,0,0,0.377,0.3771,0.3858,0.3859,0.386,0.3887,0.3887,0.3886,0.3861,0.386,0.386,0.386,0.3896,0.3897,0.3899,0,0,0,0,0,0,0,0,0,0,0,0,0,0.3796,0.3771,0.3857,0.3857,0.3858,0.3887,0.3886,0.3886,0.3861,0.386,0.386,0.3859,0.3895,0.3897,0.3899,0.3918,0,0,0.3904,0.3905,0,0,0,0,0,0,0,0,0.3795,0.3798,0.3856,0.3857,0.3858,0.3877,0.3869,0.39,0.3861,0.3851,0.386,0.3859,0.3896,0.3898,0.3892,0.392,0.3922,0.3905,0.3906,0.3906,0.3907,0,0,0,0,0,0,0,0.3793,0.3797,0.3861,0.3857,0.3859,0.3852,0.3854,0.3874,0.3869,0.3851,0.3852,0.3869,0.3896,0.389,0.3893,0.3922,0.3905,0.3906,0.3907,0.3908,0.4015,0.4017,0,0,0,0,0,0,0.3808,0.3796,0.386,0.3862,0.3834,0.3855,0.3857,0.3864,0.3869,0.3871,0.3869,0.3868,0.3887,0.3891,0.3894,0.3977,0.3906,0.3908,0.3909,0.4013,0.4015,0.4017,0,0,0,0,0,0,0.3805,0.3813,0.3859,0.3837,0.3843,0.3858,0.3866,0.3865,0.387,0.3883,0.3884,0.3876,0.3887,0.3892,0.3927,0.3976,0.3909,0.3911,0.4011,0.4014,0.4016,0.4105,0,0,0,0,0,0,0.3802,0.3811,0.3817,0.3838,0.3845,0.3893,0.3867,0.3867,0.3884,0.3882,0.389,0.3892,0.3887,0.3924,0.3929,0.3977,0.3912,0.4009,0.4012,0.4016,0.41,0.411,0.4119,0,0,0,0,0,0.3799,0.382,0.3817,0.3826,0.3854,0.3895,0.3898,0.39,0.3885,0.3898,0.3902,0.3892,0.3948,0.3927,0.3932,0.3982,0.4007,0.4011,0.4015,0.4095,0.4108,0.4119,0,0,0,0,0,0,0.3787,0.3821,0.3818,0.3847,0.3876,0.3894,0.3914,0.391,0.3919,0.3921,0.3912,0.3916,0.3974,0.3959,0.3936,0.4022,0.3978,0.3983,0.4037,0.4049,0.4058,0.4084,0.3914,0,0,0,0,0,0.3789,0.3816,0.3842,0.3872,0.3885,0.3897,0.3912,0.392,0.3937,0.3939,0.394,0.3953,0.3993,0.4003,0.403,0.4068,0.4105,0.4103,0.4113,0.4121,0.4146,0.426,0.4284,0.403,0.403,0.403,0,0,0.3806,0.3821,0.3843,0.3873,0.3891,0.3925,0.3903,0.3944,0.3977,0.3946,0.398,0.3995,0.4013,0.4067,0.409,0.4059,0.4209,0.4126,0.4133,0.4154,0.4267,0.4292,0.4314,0.4033,0.4032,0.4032,0,0,0.3838,0.3854,0.3877,0.3904,0.3941,0.396,0.3975,0.3997,0.4008,0.4045,0.4048,0.409,0.4111,0.4149,0.4169,0.4246,0.4267,0.4248,0.4311,0.4422,0.4445,0.4465,0.4531,0.4556,0.4241,0.4241,0.4241,0,0.3844,0.3875,0.3895,0.3919,0.3957,0.3978,0.4018,0.4041,0.4071,0.4107,0.4068,0.4157,0.4159,0.4264,0.4283,0.4273,0.4325,0.4265,0.4438,0.4459,0.4479,0.4541,0.4568,0.4246,0.4245,0.4245,0.4244,0,0.3887,0.3914,0.3939,0.3977,0.4022,0.4069,0.4114,0.4155,0.4167,0.4193,0.4283,0.4287,0.4344,0.435,0.4336,0.4479,0.4468,0.445,0.4414,0.451,0.4568,0.4596,0.4253,0.4251,0.425,0.4248,0,0,0.3875,0.395,0.3953,0.3989,0.4059,0.4103,0.4186,0.4271,0.4341,0.4359,0.4449,0.4498,0.4505,0.4528,0.4527,0.4602,0.4762,0.4582,0.4586,0.4656,0.4998,0.49,0.4919,0.4788,0.4793,0.4797,0.4979,0,0.3892,0.3954,0.3991,0.4076,0.4123,0.4191,0.4269,0.4359,0.442,0.4509,0.4552,0.463,0.4573,0.4609,0.4683,0.476,0.484,0.4713,0.4887,0.4891,0.4801,0.495,0.4677,0.4809,0.5005,0.501,0.5013,0,0.3901,0.3949,0.403,0.4144,0.417,0.4224,0.4383,0.4456,0.4601,0.4651,0.4745,0.4779,0.4902,0.4824,0.5016,0.4944,0.4986,0.5021,0.5029,0.493,0.4845,0.4747,0.4851,0.4686,0.5054,0.5051,0.5048,0,0.3894,0.3973,0.4046,0.4083,0.4213,0.4271,0.4346,0.4497,0.4597,0.4752,0.4846,0.4969,0.5053,0.5143,0.5192,0.5139,0.539,0.5323,0.5273,0.5264,0.5061,0.5026,0.5034,0.5476,0.5475,0.5475,0.5474,0,0.3913,0.3971,0.4041,0.4089,0.4196,0.4273,0.4413,0.4514,0.4676,0.4826,0.4911,0.5052,0.5148,0.5278,0.5292,0.5375,0.548,0.5332,0.5332,0.5078,0.5044,0.4912,0.4857,0.5482,0.548,0.5479,0.5478,0,0.3944,0.3975,0.4071,0.4175,0.4202,0.4291,0.4449,0.4566,0.4703,0.4908,0.497,0.5177,0.5343,0.5405,0.5565,0.5511,0.5419,0.5574,0.5243,0.5201,0.4956,0.4916,0.4833,0.4699,0.5564,0.5563,0.5563,0,0.3982,0.4025,0.4128,0.4185,0.4236,0.4348,0.4443,0.4577,0.4704,0.4987,0.5096,0.5308,0.5425,0.5596,0.5541,0.5556,0.5404,0.5328,0.517,0.4951,0.4909,0.474,0.4621,0.4932,0.4926,0.4921,0.4917,0,0.4068,0.4092,0.4176,0.4278,0.4359,0.4444,0.4566,0.4649,0.4835,0.4977,0.5173,0.5275,0.5425,0.5315,0.5331,0.5307,0.5039,0.523,0.5107,0.452,0.4238,0.4102,0.4784,0.4874,0.4879,0.4882,0.4884,0.4886,0.4127,0.4202,0.4282,0.4377,0.4455,0.4493,0.4502,0.4627,0.4743,0.4848,0.5077,0.5089,0.509,0.5051,0.5014,0.4719,0.4766,0.4521,0.4527,0.4403,0.4157,0.4733,0.4754,0.4758,0.4761,0.4763,0.4766,0,0.4179,0.4249,0.4366,0.4422,0.4453,0.4484,0.455,0.4498,0.4521,0.4649,0.4715,0.4608,0.4493,0.4448,0.4204,0.4011,0.3838,0.3899,0.3584,0.3533,0.4131,0.398,0.3706,0.3707,0.3707,0.3707,0.3707,0.3707,0.4207,0.4301,0.435,0.4367,0.4379,0.429,0.4256,0.4195,0.4206,0.4057,0.3926,0.3939,0.3949,0.3851,0.3578,0.3488,0.3228,0.3057,0.3136,0.3523,0.3579,0.3632,0.3475,0.3101,0.31,0.2317,0.2311,0.2307]},{"header":{"parameterUnit":"m.s-1","parameterCategory":2,"la1":30.2991,"la2":30.254,"lo1":-89.0895,"lo2":-89.0444,"dy":0.0017,"dx":0.0017,"nx":28,"ny":28,"refTime":"2025-08-16T21:00:00:Z","depth":"0","parameterNumber":3,"parameterNumberName":"V-component_of_CURRENTS"},"data":[0,0,0,0,0,0,0,0,0,0,0,0,0,0,0,0,0,0,0,0,0,0,0,0,0,0,0,0,0,0,0,0,0,0,0,0,0,0,0,0,0,0,0,0,0,0,0,0,0,0,0,0,0,0,0,0,0,0,0.0247,0.0246,0,0.0195,0.0195,0.0194,0.0154,0.0154,0.0154,0.0154,0.0106,0.0104,0.0103,0,0,0,0,0,0,0,0,0,0,0,0,0,0.0252,0.0252,0.0247,0.0246,0.0246,0.0195,0.0194,0.0194,0.0154,0.0154,0.0154,0.0153,0.0106,0.0105,0.0103,0,0,0,0,0,0,0,0,0,0,0,0,0,0.0228,0.0252,0.0247,0.0222,0.0219,0.0196,0.0194,0.0193,0.0154,0.0154,0.0154,0.0153,0.0106,0.0105,0.0103,0.0099,0,0,0.0098,0.0097,0,0,0,0,0,0,0,0,0.023,0.0228,0.0226,0.0223,0.022,0.0182,0.0179,0.0163,0.0154,0.0177,0.0154,0.0153,0.0133,0.0129,0.0117,0.0097,0.0095,0.0098,0.0097,0.0096,0.0096,0,0,0,0,0,0,0,0.0231,0.0229,0.0225,0.0225,0.0222,0.0192,0.0189,0.0175,0.0156,0.0175,0.0172,0.017,0.0131,0.0119,0.0116,0.0094,0.0098,0.0097,0.0096,0.0095,0.0077,0.0077,0,0,0,0,0,0,0.0245,0.0231,0.0226,0.0223,0.0226,0.0193,0.0189,0.0193,0.0156,0.015,0.017,0.0168,0.0122,0.0118,0.0114,0.0138,0.0096,0.0095,0.0094,0.0076,0.0077,0.0077,0,0,0,0,0,0,0.0246,0.0245,0.0228,0.0227,0.0223,0.0194,0.0199,0.0193,0.0183,0.0152,0.0147,0.0168,0.0122,0.0117,0.011,0.0134,0.0094,0.0093,0.0076,0.0076,0.0077,0.0165,0,0,0,0,0,0,0.0246,0.0246,0.0249,0.0228,0.0224,0.0229,0.0199,0.0192,0.0183,0.018,0.0149,0.0143,0.0121,0.0113,0.0109,0.0132,0.0091,0.0075,0.0076,0.0077,0.0162,0.0169,0.0175,0,0,0,0,0,0.0246,0.026,0.025,0.0249,0.0231,0.023,0.0225,0.0201,0.0183,0.0189,0.0165,0.0145,0.0116,0.0112,0.0107,0.013,0.0075,0.0076,0.0077,0.0159,0.0168,0.0175,0,0,0,0,0,0,0.0264,0.0257,0.0245,0.0256,0.0249,0.0224,0.0225,0.0207,0.019,0.0185,0.0152,0.0146,0.0148,0.0124,0.0121,0.0125,0.0091,0.0091,0.0155,0.0163,0.017,0.0219,0.009,0,0,0,0,0,0.027,0.0278,0.0267,0.0274,0.0274,0.0249,0.0243,0.0229,0.0213,0.0205,0.0183,0.0159,0.0148,0.0144,0.0125,0.0131,0.0137,0.014,0.0147,0.0153,0.0188,0.0219,0.0234,0.0081,0.0081,0.0081,0,0,0.0281,0.0275,0.028,0.0278,0.0267,0.0284,0.0245,0.0245,0.0258,0.0203,0.0211,0.0181,0.0152,0.0158,0.0157,0.0144,0.0194,0.0155,0.016,0.0193,0.0222,0.0238,0.0251,0.0082,0.0082,0.0082,0,0,0.0312,0.0301,0.0322,0.0324,0.0317,0.0306,0.0312,0.0295,0.0287,0.0287,0.0253,0.0249,0.0218,0.0217,0.0208,0.0242,0.0226,0.0221,0.0303,0.0332,0.0346,0.0358,0.037,0.0383,0.0229,0.0229,0.0229,0,0.0322,0.0349,0.0328,0.0351,0.0364,0.0324,0.036,0.0346,0.0328,0.0343,0.0302,0.0294,0.0255,0.0294,0.0296,0.0263,0.0269,0.0276,0.0345,0.0357,0.0369,0.0378,0.0391,0.0233,0.0233,0.0232,0.0232,0,0.0376,0.0395,0.041,0.043,0.0441,0.0461,0.0452,0.0458,0.0436,0.043,0.0453,0.0406,0.0416,0.0386,0.0348,0.0409,0.0384,0.0349,0.0334,0.039,0.0395,0.0407,0.024,0.0238,0.0237,0.0236,0,0,0.0407,0.0442,0.0448,0.0482,0.0488,0.0511,0.0537,0.0568,0.0613,0.0575,0.0643,0.0593,0.0578,0.0569,0.0523,0.0535,0.0591,0.0481,0.048,0.051,0.0654,0.0595,0.0601,0.0571,0.0574,0.0576,0.0621,0,0.0456,0.0525,0.0527,0.0601,0.0642,0.0634,0.0676,0.0697,0.0697,0.0748,0.0714,0.0746,0.0644,0.0661,0.0658,0.0628,0.063,0.0583,0.0581,0.0581,0.0537,0.0617,0.0585,0.062,0.0632,0.0634,0.0636,0,0.051,0.0553,0.0634,0.0713,0.0733,0.0769,0.0852,0.0886,0.0933,0.094,0.0965,0.0939,0.0969,0.086,0.0856,0.0833,0.0755,0.0706,0.0706,0.064,0.0547,0.0566,0.0641,0.0442,0.0654,0.0653,0.0651,0,0.0557,0.0632,0.0704,0.0728,0.0803,0.0849,0.0894,0.0949,0.1012,0.108,0.1143,0.1145,0.1188,0.1108,0.0993,0.094,0.0977,0.089,0.076,0.0754,0.0724,0.0711,0.0628,0.0878,0.0878,0.0878,0.0878,0,0.0614,0.0675,0.0734,0.0779,0.0886,0.092,0.1039,0.1079,0.1174,0.1296,0.1257,0.1366,0.1256,0.1247,0.1093,0.0991,0.1059,0.0812,0.078,0.0748,0.0737,0.0556,0.0439,0.088,0.0879,0.0879,0.0879,0,0.0661,0.069,0.0784,0.0875,0.0909,0.0992,0.1125,0.1222,0.1296,0.1463,0.1503,0.1573,0.1587,0.1436,0.1341,0.115,0.0911,0.0952,0.0911,0.0873,0.0538,0.0427,0.0343,0.0258,0.0836,0.0836,0.0835,0,0.0696,0.0745,0.0851,0.091,0.0953,0.1072,0.1167,0.1268,0.1387,0.1605,0.1711,0.1783,0.1874,0.1706,0.1396,0.1144,0.0925,0.0894,0.0773,0.0552,0.0406,0.0325,0.0254,0.0762,0.0761,0.076,0.0759,0,0.0771,0.0796,0.0872,0.0985,0.1084,0.1215,0.1362,0.1471,0.1639,0.1809,0.2053,0.2155,0.2018,0.1799,0.1418,0.1203,0.0741,0.0861,0.0664,0.0381,0.0264,0.0156,0.068,0.0749,0.075,0.0751,0.0751,0.0752,0.0823,0.0882,0.0966,0.1077,0.1194,0.1355,0.1482,0.1672,0.1904,0.2199,0.229,0.251,0.2116,0.1631,0.1312,0.0658,0.0681,0.0437,0.0336,0.0287,0.0161,0.0653,0.0656,0.0656,0.0656,0.0657,0.0657,0,0.0886,0.0951,0.1058,0.1196,0.1331,0.1383,0.1616,0.1779,0.2075,0.2384,0.2617,0.2558,0.2056,0.1508,0.0624,0.0199,0.0049,-0.0028,-0.0151,-0.0188,0.0286,0.0234,0.0108,0.0108,0.0109,0.0109,0.0109,0.0109,0.0921,0.1021,0.1073,0.1286,0.1392,0.1593,0.173,0.1995,0.2252,0.2613,0.2786,0.2897,0.2412,0.0912,-0.0065,-0.0274,-0.0562,-0.0626,-0.0739,-0.0448,-0.0413,-0.0379,-0.0455,-0.0723,-0.0724,-0.1171,-0.1176,-0.1179]}],[{"header":{"parameterUnit":"m.s-1","parameterCategory":2,"la1":30.2991,"la2":30.254,"lo1":-89.0895,"lo2":-89.0444,"dy":0.0017,"dx":0.0017,"nx":28,"ny":28,"refTime":"2025-08-16T21:00:00:Z","depth":"2","parameterNumber":2,"parameterNumberName":"U-component_of_CURRENTS"},"data":[0,0,0,0,0,0,0,0,0,0,0,0,0,0,0,0,0,0,0,0,0,0,0,0,0,0,0,0,0,0,0,0,0,0,0,0,0,0,0,0,0,0,0,0,0,0,0,0,0,0,0,0,0,0,0,0,0,0,0.2723,0.2724,0,0.2807,0.2808,0.2809,0.2814,0.2813,0.2812,0.2811,0.2827,0.2829,0.283,0,0,0,0,0,0,0,0,0,0,0,0,0,0.2677,0.2677,0.2723,0.2724,0.2725,0.2807,0.2808,0.2809,0.2814,0.2813,0.2811,0.281,0.2827,0.2829,0.283,0,0,0,0,0,0,0,0,0,0,0,0,0,0.2724,0.2677,0.2723,0.2736,0.2738,0.2806,0.2808,0.281,0.2814,0.2813,0.2811,0.281,0.2826,0.2828,0.2831,0.2876,0,0,0.2837,0.2838,0,0,0,0,0,0,0,0,0.2721,0.2725,0.2733,0.2735,0.2737,0.2797,0.2798,0.2828,0.2815,0.2787,0.2811,0.2809,0.2811,0.2815,0.2837,0.2877,0.2878,0.2837,0.2839,0.284,0.284,0,0,0,0,0,0,0,0.2717,0.2722,0.2757,0.2734,0.2737,0.2776,0.278,0.2805,0.2807,0.2789,0.2789,0.2797,0.2812,0.2835,0.2837,0.2878,0.2837,0.2839,0.2841,0.2841,0.2933,0.2934,0,0,0,0,0,0,0.2701,0.2719,0.2755,0.276,0.2724,0.2777,0.2782,0.2781,0.2808,0.2811,0.2798,0.2797,0.2832,0.2834,0.2837,0.29,0.284,0.2842,0.2843,0.2932,0.2933,0.2934,0,0,0,0,0,0,0.2699,0.2703,0.2751,0.2741,0.2749,0.2779,0.2778,0.2783,0.2817,0.2816,0.2817,0.2827,0.2831,0.2834,0.2848,0.29,0.2843,0.2845,0.293,0.2932,0.2934,0.3021,0,0,0,0,0,0,0.2697,0.2702,0.2716,0.2739,0.2749,0.2793,0.278,0.2786,0.2823,0.2822,0.2841,0.284,0.283,0.2844,0.285,0.2902,0.2846,0.2929,0.2931,0.2933,0.3016,0.3025,0.3033,0,0,0,0,0,0.2695,0.2723,0.2716,0.2722,0.2761,0.2794,0.2803,0.282,0.2826,0.2845,0.2842,0.284,0.2862,0.2847,0.2853,0.2907,0.2928,0.2931,0.2933,0.3013,0.3023,0.3032,0,0,0,0,0,0,0.2718,0.2727,0.2719,0.2749,0.2766,0.2794,0.2826,0.2837,0.2858,0.2855,0.2852,0.2852,0.2893,0.2879,0.2863,0.2936,0.2897,0.2901,0.2956,0.2966,0.2974,0.2985,0.2848,0,0,0,0,0,0.2726,0.2737,0.2752,0.2772,0.2787,0.2811,0.2835,0.2839,0.2854,0.2864,0.2878,0.2888,0.2911,0.2917,0.2934,0.2971,0.2998,0.3008,0.3016,0.3023,0.3035,0.3138,0.3158,0.2943,0.2943,0.2943,0,0,0.273,0.2744,0.2745,0.2777,0.2796,0.2827,0.2822,0.2855,0.2879,0.2862,0.2909,0.2926,0.2928,0.2969,0.2986,0.2961,0.3094,0.3026,0.3033,0.3041,0.3143,0.3164,0.3183,0.2944,0.2944,0.2944,0,0,0.275,0.2765,0.2782,0.2801,0.2831,0.2853,0.2866,0.2901,0.2916,0.2958,0.2955,0.2992,0.3029,0.3041,0.3051,0.3114,0.3143,0.3125,0.3173,0.3273,0.3293,0.331,0.336,0.3381,0.312,0.312,0.312,0,0.276,0.2779,0.2795,0.2823,0.2844,0.2867,0.2894,0.2924,0.2957,0.2989,0.2976,0.3072,0.3068,0.3132,0.3144,0.3139,0.3185,0.3139,0.3288,0.3306,0.3322,0.3369,0.3392,0.3125,0.3124,0.3124,0.3123,0,0.2784,0.2808,0.2827,0.2861,0.2892,0.2919,0.2951,0.2991,0.3026,0.3068,0.3149,0.3156,0.3218,0.3224,0.3201,0.3315,0.3306,0.3299,0.3271,0.335,0.3393,0.3415,0.3131,0.313,0.3128,0.3127,0,0,0.2776,0.2831,0.2835,0.2854,0.291,0.2934,0.2991,0.3059,0.3119,0.3172,0.3265,0.3304,0.3343,0.3354,0.3349,0.3412,0.3552,0.3405,0.3408,0.3466,0.3761,0.3605,0.3613,0.3591,0.3596,0.3599,0.374,0,0.2789,0.284,0.2866,0.2915,0.2946,0.2985,0.3052,0.3116,0.3176,0.3277,0.3328,0.3415,0.3383,0.3423,0.3493,0.3553,0.3617,0.3513,0.3663,0.3667,0.3531,0.3636,0.3332,0.342,0.3761,0.3765,0.3767,0,0.2797,0.2837,0.2881,0.2953,0.2973,0.3023,0.3125,0.3177,0.3316,0.3366,0.3469,0.3528,0.3639,0.3595,0.3762,0.3708,0.3744,0.3771,0.3777,0.3619,0.3553,0.3397,0.3447,0.3804,0.3801,0.3798,0.3796,0,0.2781,0.2842,0.2878,0.2896,0.2992,0.3038,0.3108,0.3229,0.3304,0.3437,0.3517,0.3661,0.3751,0.3845,0.3893,0.3866,0.4061,0.4032,0.3918,0.3906,0.3665,0.3624,0.4153,0.4153,0.4153,0.4152,0.4152,0,0.2783,0.2804,0.288,0.2906,0.298,0.3049,0.3146,0.3227,0.3388,0.348,0.3575,0.3659,0.3829,0.3943,0.397,0.4011,0.4137,0.3951,0.395,0.368,0.364,0.3979,0.3957,0.4158,0.4157,0.4156,0.4155,0,0.2742,0.2786,0.2825,0.2932,0.2973,0.3023,0.3176,0.3253,0.3389,0.3509,0.3567,0.3753,0.3885,0.3996,0.4153,0.4095,0.4144,0.411,0.3751,0.3703,0.3904,0.3885,0.404,0.4036,0.4032,0.403,0.4027,0,0.2716,0.2742,0.2831,0.287,0.292,0.3008,0.3087,0.3241,0.3314,0.3518,0.3577,0.3778,0.3832,0.3996,0.3986,0.4026,0.4109,0.3712,0.3587,0.3919,0.3903,0.3888,0.3874,0.3308,0.33,0.3293,0.3288,0,0.2675,0.2707,0.2731,0.2822,0.2889,0.2957,0.3076,0.3124,0.3275,0.3389,0.35,0.3577,0.3719,0.3632,0.3683,0.3648,0.3685,0.3575,0.4078,0.3359,0.3234,0.3215,0.3225,0.323,0.3235,0.324,0.3243,0.3245,0.2631,0.2639,0.269,0.2742,0.2816,0.2874,0.287,0.2967,0.305,0.313,0.329,0.329,0.3349,0.3287,0.3194,0.3135,0.3384,0.3212,0.3231,0.3258,0.3123,0.2997,0.2922,0.2926,0.2929,0.2932,0.2935,0,0.2586,0.2624,0.2646,0.2676,0.2673,0.2801,0.2843,0.2774,0.2763,0.2877,0.2937,0.271,0.2673,0.2754,0.2571,0.2539,0.2512,0.2432,0.2381,0.2441,0.2494,0.2319,0.1905,0.1902,0.1899,0.1896,0,0,0.2594,0.2561,0.2547,0.2495,0.2563,0.2519,0.2515,0.244,0.2442,0.2353,0.2364,0.2561,0.2665,0.2264,0.2202,0.2026,0.2214,0.194,0.2772,0.2773,0.2822,0.2954,0.2753,0,0,0,0,0]},{"header":{"parameterUnit":"m.s-1","parameterCategory":2,"la1":30.2991,"la2":30.254,"lo1":-89.0895,"lo2":-89.0444,"dy":0.0017,"dx":0.0017,"nx":28,"ny":28,"refTime":"2025-08-16T21:00:00:Z","depth":"2","parameterNumber":3,"parameterNumberName":"V-component_of_CURRENTS"},"data":[0,0,0,0,0,0,0,0,0,0,0,0,0,0,0,0,0,0,0,0,0,0,0,0,0,0,0,0,0,0,0,0,0,0,0,0,0,0,0,0,0,0,0,0,0,0,0,0,0,0,0,0,0,0,0,0,0,0,0.0148,0.0147,0,0.0109,0.0108,0.0108,0.0078,0.0078,0.0078,0.0078,0.0031,0.003,0.0029,0,0,0,0,0,0,0,0,0,0,0,0,0,0.0145,0.0145,0.0148,0.0147,0.0147,0.0109,0.0108,0.0108,0.0078,0.0078,0.0078,0.0078,0.0031,0.003,0.0029,0,0,0,0,0,0,0,0,0,0,0,0,0,0.013,0.0145,0.0148,0.0128,0.0126,0.0109,0.0108,0.0108,0.0078,0.0078,0.0078,0.0077,0.0032,0.003,0.0028,0.0025,0,0,0.0024,0.0023,0,0,0,0,0,0,0,0,0.0131,0.013,0.0131,0.0129,0.0127,0.0099,0.009,0.008,0.0079,0.0096,0.0078,0.0077,0.0053,0.005,0.0043,0.0023,0.0021,0.0024,0.0023,0.0022,0.0021,0,0,0,0,0,0,0,0.0132,0.0131,0.0132,0.0131,0.0128,0.0103,0.0101,0.0088,0.0076,0.0094,0.0092,0.0089,0.0052,0.0044,0.0041,0.0021,0.0024,0.0022,0.0021,0.0021,0.0004,0.0004,0,0,0,0,0,0,0.0141,0.0132,0.0133,0.0131,0.0129,0.0104,0.0102,0.0108,0.0077,0.0072,0.0089,0.0088,0.0047,0.0043,0.004,0.0052,0.0022,0.002,0.002,0.0003,0.0004,0.0004,0,0,0,0,0,0,0.0141,0.0142,0.0135,0.013,0.0128,0.0105,0.0111,0.0107,0.01,0.0073,0.0068,0.0087,0.0047,0.0042,0.0035,0.0049,0.002,0.0018,0.0003,0.0004,0.0004,0.0065,0,0,0,0,0,0,0.0141,0.0142,0.0146,0.0131,0.0128,0.0136,0.0112,0.0107,0.0099,0.0096,0.007,0.0065,0.0046,0.0037,0.0033,0.0046,0.0017,0.0002,0.0003,0.0004,0.0062,0.0067,0.0072,0,0,0,0,0,0.0142,0.0155,0.0147,0.0147,0.0136,0.0137,0.0133,0.0114,0.0099,0.0105,0.0085,0.0066,0.004,0.0037,0.0032,0.0045,0.0002,0.0003,0.0004,0.006,0.0066,0.0072,0,0,0,0,0,0,0.0155,0.0153,0.0144,0.0155,0.015,0.0132,0.0133,0.0118,0.0105,0.0101,0.0072,0.0067,0.0064,0.0046,0.0043,0.0042,0.0018,0.0018,0.0062,0.0068,0.0073,0.0092,0.0016,0,0,0,0,0,0.016,0.017,0.0162,0.017,0.017,0.015,0.0146,0.0135,0.0123,0.0116,0.0097,0.0077,0.0064,0.006,0.0044,0.0046,0.0028,0.005,0.0055,0.006,0.0072,0.0062,0.0067,0.0008,0.0008,0.0008,0,0,0.0166,0.0166,0.017,0.0173,0.0165,0.0179,0.0147,0.0148,0.0158,0.0114,0.0118,0.0092,0.0067,0.0069,0.0066,0.0057,0.0064,0.0061,0.0065,0.0075,0.0063,0.0069,0.0074,0.0009,0.0009,0.0009,0,0,0.019,0.0185,0.0204,0.0207,0.0204,0.0196,0.02,0.0188,0.0181,0.018,0.015,0.0135,0.0116,0.0104,0.0094,0.0117,0.0087,0.011,0.0156,0.0146,0.0151,0.0155,0.0129,0.013,0.0117,0.0117,0.0117,0,0.0196,0.0223,0.0209,0.0231,0.0241,0.021,0.0239,0.0228,0.0214,0.0217,0.0191,0.0164,0.0134,0.0144,0.0148,0.0129,0.0115,0.0137,0.0154,0.0158,0.0161,0.0133,0.0134,0.012,0.012,0.012,0.0119,0,0.0241,0.0259,0.0272,0.0294,0.0302,0.0319,0.0312,0.0312,0.0293,0.0284,0.0281,0.0237,0.0226,0.0209,0.0183,0.0196,0.0174,0.0158,0.0142,0.0171,0.0139,0.0139,0.0125,0.0123,0.0123,0.0122,0,0,0.0263,0.0298,0.0302,0.0332,0.0339,0.0359,0.0373,0.0388,0.0412,0.0374,0.0401,0.0354,0.0325,0.0312,0.0275,0.0261,0.0255,0.0225,0.0223,0.0204,0.0226,0.0166,0.0159,0.0246,0.0246,0.0247,0.019,0,0.0303,0.0366,0.0368,0.0428,0.0465,0.0451,0.0479,0.0485,0.0474,0.0489,0.0438,0.0445,0.0367,0.0368,0.0337,0.0289,0.0259,0.0271,0.0196,0.0193,0.0141,0.0159,0.0181,0.013,0.019,0.019,0.019,0,0.0347,0.039,0.0457,0.052,0.0535,0.0563,0.061,0.0634,0.0636,0.0629,0.0608,0.0565,0.0538,0.0468,0.0383,0.0398,0.0314,0.026,0.0256,0.0183,0.0134,0.0112,0.0127,0.0189,0.0189,0.0189,0.0189,0,0.0389,0.0453,0.0514,0.0534,0.0593,0.0623,0.0657,0.0676,0.0728,0.0725,0.0751,0.0689,0.0683,0.0576,0.0434,0.0421,0.0337,0.0303,0.0163,0.0157,0.0152,0.0145,0.0234,0.0234,0.0234,0.0234,0.0235,0,0.0438,0.0488,0.0541,0.0579,0.0669,0.069,0.0783,0.0794,0.0849,0.0937,0.0834,0.0871,0.0713,0.0633,0.0485,0.0323,0.0368,0.0175,0.0144,0.017,0.0166,0.02,0.0197,0.0232,0.0233,0.0233,0.0234,0,0.0477,0.0504,0.0587,0.0661,0.0691,0.0762,0.0883,0.0959,0.0982,0.1091,0.1102,0.1034,0.0931,0.074,0.0576,0.0403,0.0248,0.017,0.0197,0.017,0.0059,0.006,0.0022,0.0019,0.0017,0.0016,0.0014,0,0.0505,0.055,0.0651,0.071,0.0747,0.0857,0.0946,0.102,0.1119,0.1199,0.1265,0.1183,0.1137,0.0835,0.0542,0.0264,0.0233,0.0073,0.0038,0.0067,0.004,0.0044,0.0048,0.0053,0.0052,0.0051,0.005,0,0.0568,0.0596,0.0674,0.08,0.0896,0.1019,0.1152,0.126,0.1373,0.1453,0.1534,0.1497,0.1194,0.0906,0.0492,0.0299,0.0117,0.0044,0.0094,0.0094,0.0089,0.0065,0.0069,0.0043,0.0044,0.0044,0.0045,0.0045,0.0621,0.0684,0.0787,0.0913,0.102,0.1174,0.1301,0.1457,0.1635,0.1765,0.1722,0.1654,0.1301,0.0768,0.0427,0.0061,0.0076,-0.0064,-0.0058,-0.0052,-0.0047,-0.0056,-0.013,-0.013,-0.013,-0.013,-0.013,0,0.0695,0.0771,0.0895,0.1045,0.1171,0.1211,0.1435,0.1569,0.1783,0.1865,0.1903,0.1553,0.1214,0.0822,0.0275,-0.0064,-0.007,-0.0169,-0.0095,-0.0086,-0.0078,-0.0072,-0.0163,-0.0164,-0.0165,-0.0165,0,0,0.0738,0.0871,0.0942,0.1157,0.1247,0.1419,0.1548,0.174,0.1854,0.193,0.1883,0.1777,0.1305,0.0905,0.0459,0.0153,0.0112,0.0088,0.0147,0.0295,0.0307,0.0008,0.003,0,0,0,0,0]}],[{"header":{"parameterUnit":"m.s-1","parameterCategory":2,"la1":30.2991,"la2":30.254,"lo1":-89.0895,"lo2":-89.0444,"dy":0.0017,"dx":0.0017,"nx":28,"ny":28,"refTime":"2025-08-16T21:00:00:Z","depth":"4","parameterNumber":2,"parameterNumberName":"U-component_of_CURRENTS"},"data":[0,0,0,0,0,0,0,0,0,0,0,0,0,0,0,0,0,0,0,0,0,0,0,0,0,0,0,0,0,0,0,0,0,0,0,0,0,0,0,0,0,0,0,0,0,0,0,0,0,0,0,0,0,0,0,0,0,0,0.1576,0.1576,0,0.1623,0.1623,0.1624,0.1681,0.1682,0.1683,0.1684,0.1743,0.1744,0.1744,0,0,0,0,0,0,0,0,0,0,0,0,0,0.1529,0.153,0.1576,0.1576,0.1577,0.1623,0.1623,0.1624,0.168,0.1682,0.1683,0.1684,0.1743,0.1743,0.1744,0,0,0,0,0,0,0,0,0,0,0,0,0,0.1559,0.153,0.1575,0.1612,0.1616,0.1623,0.1623,0.1624,0.168,0.1682,0.1683,0.1685,0.1743,0.1743,0.1744,0.1719,0,0,0.1747,0.1747,0,0,0,0,0,0,0,0,0.1557,0.156,0.1606,0.161,0.1614,0.1649,0.1629,0.1657,0.168,0.1654,0.1684,0.1685,0.1713,0.1716,0.1719,0.1721,0.1724,0.1747,0.1748,0.1748,0.1748,0,0,0,0,0,0,0,0.1555,0.1558,0.1593,0.1607,0.1612,0.1625,0.163,0.1634,0.1673,0.1656,0.1661,0.1669,0.1715,0.1718,0.1721,0.1725,0.1747,0.1748,0.1749,0.1749,0.1833,0.1834,0,0,0,0,0,0,0.1551,0.1556,0.1591,0.1594,0.1591,0.1624,0.1631,0.1635,0.1673,0.168,0.1667,0.1671,0.1715,0.172,0.1723,0.18,0.1748,0.1749,0.1749,0.1831,0.1833,0.1835,0,0,0,0,0,0,0.155,0.1553,0.1589,0.1578,0.1584,0.1624,0.1628,0.1635,0.1675,0.1681,0.1689,0.1705,0.1717,0.1722,0.1763,0.1798,0.1749,0.175,0.1829,0.1832,0.1834,0.1885,0,0,0,0,0,0,0.1548,0.1552,0.1569,0.1578,0.1584,0.1619,0.1627,0.1635,0.1676,0.1682,0.1715,0.172,0.1718,0.1761,0.1763,0.1799,0.1751,0.1827,0.183,0.1833,0.1881,0.1889,0.1896,0,0,0,0,0,0.1546,0.1557,0.157,0.1575,0.1601,0.162,0.1625,0.1657,0.1677,0.1698,0.1725,0.1721,0.1783,0.1763,0.1765,0.1802,0.1826,0.1829,0.1833,0.1878,0.1888,0.1896,0,0,0,0,0,0,0.1545,0.1564,0.1578,0.1596,0.1619,0.1631,0.1658,0.1674,0.1711,0.1729,0.1734,0.1741,0.1796,0.1789,0.1766,0.1837,0.1807,0.1811,0.184,0.1849,0.1856,0.1866,0.1752,0,0,0,0,0,0.1551,0.157,0.1587,0.1606,0.1621,0.1646,0.1664,0.1685,0.1709,0.1729,0.1752,0.1778,0.1805,0.1821,0.1842,0.1868,0.1885,0.1897,0.1904,0.191,0.1921,0.1987,0.2002,0.1847,0.1847,0.1847,0,0,0.1554,0.1571,0.1581,0.1609,0.1632,0.1651,0.1662,0.17,0.1724,0.1727,0.1782,0.1808,0.182,0.1862,0.1885,0.1865,0.1962,0.1915,0.192,0.1928,0.1993,0.2008,0.2021,0.185,0.185,0.1849,0,0,0.1563,0.1589,0.1607,0.1628,0.167,0.1682,0.1701,0.1734,0.1765,0.1808,0.1826,0.1875,0.1906,0.1926,0.1936,0.1993,0.2003,0.2007,0.2044,0.2109,0.2122,0.2134,0.2167,0.2181,0.2004,0.2004,0.2004,0,0.1573,0.1589,0.1617,0.1639,0.166,0.1699,0.1719,0.1748,0.1794,0.1831,0.1838,0.1928,0.1935,0.199,0.2013,0.201,0.2043,0.2007,0.2119,0.2131,0.2142,0.2173,0.2188,0.2007,0.2006,0.2006,0.2006,0,0.1578,0.1608,0.1624,0.1663,0.1689,0.1717,0.1753,0.1802,0.1847,0.1882,0.1971,0.1992,0.2052,0.2059,0.2051,0.2137,0.2134,0.2125,0.2095,0.2161,0.2189,0.2204,0.2011,0.201,0.2009,0.2008,0,0,0.1564,0.1616,0.1628,0.1647,0.1704,0.172,0.1781,0.1842,0.19,0.1963,0.2036,0.209,0.2137,0.2152,0.2162,0.2204,0.23,0.2204,0.2205,0.2233,0.2439,0.2263,0.2262,0.2324,0.2327,0.233,0.2423,0,0.1568,0.1598,0.163,0.167,0.1688,0.1747,0.1796,0.1865,0.1939,0.2022,0.2083,0.2162,0.2161,0.2206,0.2256,0.2298,0.2345,0.2275,0.2374,0.2376,0.221,0.2275,0.234,0.2434,0.2437,0.244,0.2441,0,0.1558,0.1585,0.1615,0.1675,0.1692,0.1728,0.1828,0.1882,0.201,0.2075,0.2182,0.2241,0.2335,0.2314,0.2441,0.2406,0.2436,0.2452,0.2456,0.2285,0.2228,0.2357,0.2468,0.2466,0.2464,0.2462,0.2461,0,0.1512,0.1571,0.1594,0.1611,0.1687,0.1733,0.1791,0.1913,0.1974,0.2132,0.2205,0.2329,0.2406,0.2478,0.2532,0.2511,0.2647,0.2618,0.2485,0.2472,0.258,0.2566,0.2708,0.2708,0.2707,0.2707,0.2707,0,0.1475,0.15,0.158,0.1591,0.1645,0.1715,0.1799,0.1889,0.2017,0.2094,0.2242,0.2318,0.2459,0.2549,0.2576,0.2576,0.2698,0.2504,0.2491,0.2596,0.2584,0.259,0.2575,0.2711,0.271,0.2709,0.2709,0,0.1395,0.1455,0.1483,0.1576,0.1622,0.1657,0.1785,0.184,0.1992,0.2099,0.2156,0.2346,0.2468,0.2567,0.2681,0.2616,0.2635,0.2602,0.2709,0.27,0.2404,0.2391,0.2461,0.2456,0.2452,0.2448,0.2445,0,0.1339,0.1351,0.1455,0.148,0.1524,0.1604,0.1664,0.1818,0.1875,0.209,0.2122,0.2308,0.2413,0.2448,0.2558,0.2602,0.257,0.2557,0.2472,0.2401,0.2384,0.2378,0.2371,0.2438,0.2436,0.2435,0.2434,0,0.1233,0.1287,0.1304,0.1368,0.1432,0.1492,0.159,0.1624,0.1797,0.1948,0.205,0.213,0.2256,0.235,0.2405,0.2427,0.255,0.2509,0.2518,0.2438,0.2374,0.2359,0.2358,0.2419,0.2421,0.2422,0.2423,0,0.1155,0.1126,0.1175,0.1215,0.13,0.1352,0.1425,0.1502,0.1594,0.1829,0.1859,0.206,0.2229,0.226,0.2309,0.232,0.228,0.2193,0.2217,0.2236,0.2117,0.1999,0.1929,0,0,0,0,0,0.1064,0.1014,0.1022,0.1066,0.1152,0.122,0.1357,0.1436,0.162,0.1638,0.1741,0.1848,0.1948,0.206,0.2028,0.2198,0.2279,0.2149,0.2188,0.2332,0.235,0.223,0,0,0,0,0,0,0.1,0.0984,0.096,0.095,0.0966,0.1059,0.1151,0.128,0.1305,0.1498,0.1576,0.1713,0.1853,0.1944,0.1986,0.2013,0.1993,0.2267,0.2262,0.2322,0.2339,0.2353,0.2236,0,0,0,0,0]},{"header":{"parameterUnit":"m.s-1","parameterCategory":2,"la1":30.2991,"la2":30.254,"lo1":-89.0895,"lo2":-89.0444,"dy":0.0017,"dx":0.0017,"nx":28,"ny":28,"refTime":"2025-08-16T21:00:00:Z","depth":"4","parameterNumber":3,"parameterNumberName":"V-component_of_CURRENTS"},"data":[0,0,0,0,0,0,0,0,0,0,0,0,0,0,0,0,0,0,0,0,0,0,0,0,0,0,0,0,0,0,0,0,0,0,0,0,0,0,0,0,0,0,0,0,0,0,0,0,0,0,0,0,0,0,0,0,0,0,0.0136,0.0136,0,0.0118,0.0118,0.0118,0.01,0.01,0.01,0.0099,0.0072,0.0072,0.0071,0,0,0,0,0,0,0,0,0,0,0,0,0,0.0125,0.0126,0.0136,0.0136,0.0135,0.0118,0.0118,0.0118,0.01,0.01,0.0099,0.0099,0.0072,0.0072,0.0071,0,0,0,0,0,0,0,0,0,0,0,0,0,0.0121,0.0126,0.0136,0.0124,0.0123,0.0118,0.0118,0.0118,0.01,0.01,0.0099,0.0099,0.0072,0.0072,0.0071,0.0074,0,0,0.0069,0.0068,0,0,0,0,0,0,0,0,0.0122,0.0122,0.0126,0.0125,0.0124,0.0111,0.0104,0.0103,0.01,0.0109,0.0099,0.0099,0.0084,0.0082,0.0081,0.0073,0.0072,0.0069,0.0068,0.0068,0.0068,0,0,0,0,0,0,0,0.0122,0.0122,0.0129,0.0126,0.0124,0.011,0.0109,0.0104,0.0099,0.0108,0.0107,0.0105,0.0083,0.0081,0.008,0.0072,0.0069,0.0068,0.0068,0.0067,0.0062,0.0063,0,0,0,0,0,0,0.0126,0.0123,0.013,0.0129,0.0121,0.0111,0.011,0.0116,0.0099,0.0096,0.0105,0.0104,0.0083,0.0081,0.0079,0.0088,0.0068,0.0067,0.0067,0.0062,0.0063,0.0063,0,0,0,0,0,0,0.0126,0.0127,0.013,0.0124,0.0124,0.0112,0.0118,0.0115,0.0114,0.0097,0.0094,0.0106,0.0082,0.008,0.0077,0.0086,0.0067,0.0066,0.0062,0.0062,0.0063,0.0102,0,0,0,0,0,0,0.0126,0.0127,0.0132,0.0125,0.0124,0.0133,0.0118,0.0115,0.0113,0.0111,0.0097,0.0094,0.0082,0.0078,0.0076,0.0085,0.0066,0.0061,0.0062,0.0063,0.01,0.0104,0.0107,0,0,0,0,0,0.0125,0.0137,0.0133,0.0133,0.0132,0.0133,0.0132,0.0121,0.0113,0.0117,0.0106,0.0094,0.008,0.0078,0.0076,0.0084,0.0061,0.0062,0.0063,0.0099,0.0103,0.0107,0,0,0,0,0,0,0.0134,0.0136,0.0131,0.0142,0.0139,0.013,0.0133,0.0125,0.0119,0.0118,0.01,0.0097,0.0095,0.0085,0.0083,0.0084,0.0068,0.0068,0.0097,0.01,0.0103,0.0109,0.0065,0,0,0,0,0,0.0139,0.0149,0.0145,0.0153,0.0154,0.0144,0.0142,0.0136,0.013,0.0127,0.0116,0.0105,0.0097,0.0095,0.0085,0.009,0.006,0.0092,0.0096,0.0098,0.0101,0.0063,0.0063,0.0065,0.0065,0.0065,0,0,0.0144,0.0146,0.0151,0.0155,0.0152,0.0163,0.0142,0.0146,0.0153,0.0125,0.0132,0.0115,0.0099,0.0101,0.01,0.0095,0.0082,0.0099,0.0102,0.0102,0.0063,0.0063,0.0063,0.0066,0.0065,0.0065,0,0,0.0162,0.0163,0.0177,0.018,0.018,0.0176,0.0179,0.0174,0.017,0.0173,0.0153,0.014,0.0134,0.0121,0.0115,0.0129,0.0096,0.0129,0.0154,0.0118,0.0117,0.0116,0.0075,0.007,0.0135,0.0135,0.0135,0,0.0167,0.0187,0.018,0.0196,0.0204,0.0186,0.0206,0.0201,0.0194,0.0194,0.0181,0.0159,0.0143,0.0139,0.0145,0.0136,0.0109,0.0143,0.0122,0.012,0.0119,0.0077,0.0071,0.0137,0.0137,0.0137,0.0136,0,0.0197,0.0213,0.0223,0.0239,0.0246,0.0259,0.0256,0.0257,0.0248,0.024,0.0231,0.0201,0.0189,0.018,0.0169,0.0156,0.0137,0.0126,0.0112,0.0121,0.0076,0.0069,0.014,0.0139,0.0139,0.0138,0,0,0.021,0.0239,0.0243,0.0265,0.0273,0.0288,0.0297,0.0304,0.0316,0.0291,0.0295,0.0267,0.0244,0.0235,0.021,0.0178,0.014,0.0155,0.0152,0.0114,0.0055,0.0043,0.0034,0.0127,0.0126,0.0125,0.0027,0,0.0236,0.0282,0.0285,0.033,0.0357,0.0349,0.0366,0.0368,0.0357,0.0355,0.031,0.0306,0.0268,0.0265,0.0224,0.0165,0.0125,0.0168,0.0052,0.0049,0.0037,0.0027,0.0123,0.0021,0.002,0.0019,0.0018,0,0.0263,0.0296,0.0346,0.0392,0.0402,0.0424,0.0452,0.0468,0.0451,0.044,0.041,0.0372,0.0326,0.0291,0.0179,0.021,0.0137,0.0081,0.0075,0.0047,0.0024,0.0011,0.0005,0.0006,0.0007,0.0008,0.0008,0,0.0289,0.0338,0.0385,0.04,0.0444,0.0466,0.0492,0.0495,0.0525,0.0497,0.0503,0.0426,0.0404,0.0295,0.0178,0.0179,0.0045,0.0031,-0.0055,-0.0057,-0.0035,-0.0033,-0.0057,-0.0057,-0.0057,-0.0057,-0.0056,0,0.0318,0.0358,0.0405,0.0435,0.0502,0.0516,0.0577,0.0582,0.0599,0.0635,0.0559,0.0554,0.0406,0.0311,0.0189,0.0046,0.0049,-0.0057,-0.0084,-0.0016,-0.0011,-0.004,-0.0037,-0.006,-0.0059,-0.0059,-0.0058,0,0.0343,0.0368,0.0434,0.0494,0.0519,0.0575,0.0656,0.0701,0.0701,0.074,0.0737,0.0655,0.0526,0.0361,0.0182,0.0077,-0.0069,-0.0122,-0.0042,-0.0061,-0.0153,-0.0147,-0.0232,-0.0233,-0.0234,-0.0235,-0.0236,0,0.036,0.0394,0.0484,0.0536,0.057,0.0652,0.0715,0.0753,0.0802,0.0802,0.0824,0.0713,0.063,0.0372,0.0188,-0.0066,-0.0099,-0.0179,-0.0169,-0.0154,-0.0172,-0.0163,-0.0156,-0.0237,-0.0238,-0.0238,-0.0238,0,0.0397,0.0427,0.0488,0.0596,0.0675,0.0767,0.0853,0.0894,0.0933,0.093,0.0895,0.075,0.0599,0.0381,0.018,0.0001,-0.0131,-0.0191,-0.019,-0.0181,-0.0162,-0.0176,-0.0167,-0.0242,-0.0241,-0.0241,-0.0241,0,0.0427,0.0474,0.0553,0.0653,0.0756,0.0851,0.0894,0.0948,0.0994,0.0981,0.0965,0.079,0.0689,0.0415,0.0234,0.0048,-0.0,-0.0056,-0.0063,-0.0061,0.0014,0.0065,0.0029,0,0,0,0,0,0.0452,0.0508,0.0603,0.0711,0.0817,0.0877,0.0975,0.1007,0.1033,0.1022,0.0995,0.0848,0.0571,0.0457,0.027,0.02,-0.0041,-0.0027,-0.011,-0.0262,-0.0258,-0.02,0,0,0,0,0,0,0.0468,0.0555,0.0605,0.0746,0.0822,0.0943,0.1006,0.1027,0.102,0.1009,0.0871,0.0794,0.0531,0.0673,0.0262,0.0205,0.0126,-0.0156,-0.0161,-0.0264,-0.0261,-0.0257,-0.0197,0,0,0,0,0]}]]